User: anonymous   Login
Location: Carnières
(50.1682°N, 3.3474°E)
Time: 06:16:04
(UTC+00:00)
Language:

GP-B - Orbit

View from above orbital plane
View from above orbital plane
View from above satellite
View from above satellite

Ground track
Ground track

The orbit data is extracted from the following two-line orbital elements,

1 28230U 04014A   24204.54490043  .00001842  00000-0  23620-3 0  9996
2 28230  89.8257  64.3583 0001944  93.0717 267.0730 14.80949425549447
Epoch (UTC): 22 July 2024 13:04:39
Eccentricity: 0.0001944
inclination: 89.8257°
perigee height: 625 km
apogee height: 627 km
right ascension of ascending node: 64.3583°
argument of perigee: 93.0717°
revolutions per day: 14.80949425
mean anomaly at epoch: 267.0730°
orbit number at epoch: 54944

The dashed part of the orbit path shows where the satellite is in the earth's shadow,  

DLR